ONEWEB-0153

Last updated on Sun Apr 25 2021 00:02:03 GMT+0000 (Coordinated Universal Time)

1 48044U 21025C 21114.58336806 -.01094112 00000-0 -57004-1 0 9995 2 48044 87.4194 339.3912 0010440 160.8601 139.5170 15.19141009 1778

Satellite not in orbit